Track NAVSTAR 62 (USA 201) now! NAVSTAR 62 (USA 201) is classified as:
1 32711U 08012A 25199.59261381 .00000070 00000-0 00000-0 0 9993 2 32711 54.4668 163.2454 0200145 243.7306 114.1805 2.00559459127066